Weather History for Highgate, VT

Change the Weather History Date:

Monday, February 24, 2014

  Actual Average (KPBG) Record (KPBG)
Temperature  
Mean Temperature 24 °F 24 °F  
Max Temperature 30 °F 34 °F 52 °F (1985)
Min Temperature 18 °F 14 °F -2 °F (2011)
Degree Days  
Heating Degree Days 41 41  
Month to date heating degree days 1074  
Since 1 July heating degree days 5450  
Moisture  
Dew Point 9 °F    
Average Humidity 56    
Maximum Humidity 80    
Minimum Humidity 34    
Precipitation  
Precipitation 0.00 in - 0.75 in (1981)
Month to date precipitation  
Year to date precipitation  
Sea Level Pressure  
Sea Level Pressure 29.84 in    
Wind  
Wind Speed 6 mph (WNW)    
Max Wind Speed 15 mph    
Max Gust Speed 31 mph    
Visibility 9 miles    
Events Snow    
T = Trace of Precipitation, MM = Missing Value Source: NWS Daily Summary

Daily Weather History Graph

Daily Weather History Graph

Search for Another Location

Airport:

Trip Planner

Search our weather history database for the weather conditions in past years. The results will help you decide how hot, cold, wet, or windy it might be!

Date:

Astronomy

Feb. 24, 2014 Rise Set
Actual Time 6:38 AM EST 5:33 PM EST
Civil Twilight 6:09 AM EST 6:02 PM EST
Nautical Twilight 5:35 AM EST 6:36 PM EST
Astronomical Twilight 5:01 AM EST 7:10 PM EST
Moon 2:42 AM EST (2/24) 12:23 PM EST (2/24)
Length of Visible Light 11h 53m
Length of Day
10h 54m
Waning Crescent, 28% of the Moon is Illuminated
Feb 24
Waning Crescent
Mar 1
New
Mar 8
First Quarter
Mar 16
Full
Mar 23
Last Quarter

Hourly Weather History & Observations

Time (EST) Temp. Windchill Dew Point Humidity Pressure Visibility Wind Dir Wind Speed Gust Speed Precip Events Conditions
12:15 AM 30.9 °F 24.3 °F 14.9 °F 52% 29.81 in 10.0 mi WSW 6.9 mph 16.1 mph N/A   Overcast
12:35 AM 30.9 °F 22.8 °F 15.4 °F 53% 29.80 in 10.0 mi West 9.2 mph - N/A   Overcast
12:55 AM 30.9 °F 22.2 °F 15.3 °F 52% 29.81 in 10.0 mi West 10.4 mph - N/A   Overcast
1:15 AM 30.9 °F 24.3 °F 15.8 °F 54% 29.80 in 10.0 mi West 6.9 mph 17.3 mph N/A   Overcast
1:35 AM 30.9 °F 21.2 °F 16.3 °F 55% 29.80 in 10.0 mi West 12.7 mph 21.9 mph N/A   Overcast
2:00 AM 26.8 °F 21.4 °F 18.0 °F 69% 29.82 in 1.8 mi WNW 4.6 mph 16.1 mph N/A Snow Light Snow
2:15 AM 25.7 °F 20.1 °F 19.2 °F 76% 29.82 in 1.0 mi WNW 4.6 mph - N/A Snow Light Snow
2:35 AM 25.7 °F 20.1 °F 17.6 °F 71% 29.81 in 10.0 mi WNW 4.6 mph - N/A   Overcast
2:55 AM 25.7 °F 18.0 °F 16.5 °F 68% 29.81 in 10.0 mi WNW 6.9 mph - N/A   Overcast
3:15 AM 25.7 °F 19.0 °F 14.0 °F 61% 29.81 in 10.0 mi West 5.8 mph - N/A   Overcast
3:35 AM 25.7 °F 20.1 °F 13.5 °F 60% 29.82 in 10.0 mi WSW 4.6 mph - N/A   Overcast
3:55 AM 25.7 °F 19.0 °F 11.5 °F 55% 29.81 in 10.0 mi West 5.8 mph - N/A   Overcast
4:15 AM 24.4 °F - 9.5 °F 53% 29.81 in 10.0 mi Calm Calm - N/A   Scattered Clouds
4:35 AM 23.9 °F 18.0 °F 7.5 °F 50% 29.81 in 10.0 mi West 4.6 mph - N/A   Scattered Clouds
4:55 AM 23.9 °F 18.0 °F 7.5 °F 50% 29.81 in 10.0 mi West 4.6 mph - N/A   Overcast
5:15 AM 23.4 °F - 7.7 °F 51% 29.81 in 10.0 mi Calm Calm - N/A   Scattered Clouds
5:35 AM 23.2 °F 18.7 °F 8.2 °F 53% 29.81 in 10.0 mi West 3.5 mph - N/A   Mostly Cloudy
5:55 AM 23.4 °F 17.4 °F 7.7 °F 51% 29.82 in 10.0 mi West 4.6 mph - N/A   Overcast
6:15 AM 23.4 °F 18.9 °F 8.4 °F 53% 29.80 in 10.0 mi West 3.5 mph - N/A   Overcast
6:35 AM 23.0 °F 18.4 °F 9.0 °F 55% 29.80 in 10.0 mi WNW 3.5 mph - N/A   Overcast
6:55 AM 22.8 °F 18.2 °F 9.7 °F 57% 29.80 in 10.0 mi NW 3.5 mph - N/A   Overcast
7:15 AM 22.5 °F 17.8 °F 10.0 °F 59% 29.80 in 10.0 mi NW 3.5 mph - N/A   Overcast
7:35 AM 23.0 °F 18.4 °F 11.3 °F 61% 29.81 in 10.0 mi NW 3.5 mph - N/A   Overcast
7:55 AM 23.0 °F 17.0 °F 12.9 °F 65% 29.81 in 10.0 mi NW 4.6 mph - N/A   Overcast
8:15 AM 22.5 °F 15.1 °F 13.6 °F 69% 29.82 in 3.0 mi WNW 5.8 mph - N/A Snow Light Snow
8:35 AM 21.7 °F 17.0 °F 15.3 °F 76% 29.82 in 0.5 mi West 3.5 mph - N/A Snow Snow
8:55 AM 22.1 °F 14.7 °F 16.7 °F 80% 29.81 in 2.0 mi WSW 5.8 mph - N/A Snow Light Snow
9:15 AM 23.5 °F 16.4 °F 15.8 °F 72% 29.81 in 10.0 mi WSW 5.8 mph - N/A   Overcast
9:35 AM 24.6 °F 16.7 °F 12.7 °F 61% 29.82 in 10.0 mi West 6.9 mph 17.3 mph N/A   Overcast
9:55 AM 24.6 °F 15.1 °F 12.4 °F 60% 29.81 in 3.0 mi West 9.2 mph 17.3 mph N/A Snow Light Snow
10:15 AM 26.1 °F 15.6 °F 12.9 °F 58% 29.81 in 10.0 mi WSW 11.5 mph 17.3 mph N/A   Mostly Cloudy
10:35 AM 25.0 °F 14.2 °F 7.2 °F 47% 29.81 in 10.0 mi WSW 11.5 mph 18.4 mph N/A   Mostly Cloudy
10:55 AM 25.2 °F 19.5 °F 11.5 °F 56% 29.81 in 10.0 mi WNW 4.6 mph - N/A   Overcast
11:15 AM 23.4 °F 17.4 °F 13.3 °F 65% 29.81 in 10.0 mi NW 4.6 mph - N/A   Overcast
11:35 AM 23.7 °F 19.3 °F 11.8 °F 61% 29.81 in 10.0 mi WNW 3.5 mph 16.1 mph N/A   Overcast
11:55 AM 24.3 °F 12.7 °F 6.3 °F 46% 29.80 in 10.0 mi West 12.7 mph 26.5 mph N/A   Overcast
12:15 PM 24.6 °F 12.2 °F 4.3 °F 42% 29.80 in 10.0 mi WNW 15.0 mph 31.1 mph N/A   Overcast
12:35 PM 24.4 °F 14.2 °F 2.3 °F 39% 29.79 in 7.0 mi West 10.4 mph 24.2 mph N/A   Overcast
12:55 PM 25.3 °F 15.3 °F 1.9 °F 37% 29.79 in 10.0 mi West 10.4 mph 18.4 mph N/A   Overcast
1:15 PM 25.7 °F 15.1 °F 3.0 °F 38% 29.78 in 10.0 mi West 11.5 mph 18.4 mph N/A   Overcast
1:35 PM 27.3 °F 17.7 °F 2.3 °F 34% 29.79 in 10.0 mi West 10.4 mph 19.6 mph N/A   Overcast
1:55 PM 25.7 °F 18.0 °F 0.9 °F 34% 29.79 in 10.0 mi West 6.9 mph 17.3 mph N/A   Overcast
2:15 PM 24.8 °F 15.3 °F 1.4 °F 36% 29.79 in 10.0 mi West 9.2 mph 18.4 mph N/A   Overcast
2:35 PM 27.7 °F 18.8 °F 3.6 °F 36% 29.79 in 10.0 mi NW 9.2 mph 17.3 mph N/A   Overcast
2:55 PM 24.3 °F 15.4 °F 4.1 °F 42% 29.80 in 10.0 mi NW 8.1 mph 18.4 mph N/A   Overcast
3:15 PM 22.6 °F 13.4 °F 6.1 °F 49% 29.81 in 10.0 mi WNW 8.1 mph - N/A   Overcast
3:35 PM 22.1 °F 12.8 °F 5.0 °F 48% 29.81 in 10.0 mi NW 8.1 mph 19.6 mph N/A   Overcast
3:55 PM 22.5 °F 14.1 °F 5.7 °F 49% 29.82 in 10.0 mi NW 6.9 mph 18.4 mph N/A   Mostly Cloudy
4:15 PM 22.1 °F 12.8 °F 6.3 °F 51% 29.82 in 10.0 mi NW 8.1 mph - N/A   Overcast
4:35 PM 21.0 °F 14.6 °F 5.9 °F 52% 29.83 in 10.0 mi NW 4.6 mph - N/A   Overcast
4:55 PM 20.8 °F 14.4 °F 5.9 °F 53% 29.84 in 10.0 mi WNW 4.6 mph - N/A   Overcast
5:15 PM 20.8 °F 13.2 °F 5.9 °F 53% 29.85 in 10.0 mi WNW 5.8 mph - N/A   Overcast
5:35 PM 20.8 °F 16.0 °F 6.6 °F 54% 29.85 in 10.0 mi NW 3.5 mph - N/A   Overcast
5:55 PM 20.8 °F 16.0 °F 5.9 °F 53% 29.86 in 10.0 mi West 3.5 mph - N/A   Overcast
6:15 PM 20.8 °F - 6.4 °F 54% 29.87 in 10.0 mi Calm Calm - N/A   Overcast
6:35 PM 20.8 °F - 5.5 °F 52% 29.88 in 10.0 mi Calm Calm - N/A   Overcast
6:55 PM 20.8 °F 14.4 °F 4.8 °F 50% 29.89 in 10.0 mi West 4.6 mph - N/A   Overcast
7:15 PM 20.8 °F - 5.2 °F 51% 29.90 in 10.0 mi Calm Calm - N/A   Overcast
7:35 PM 20.8 °F 16.0 °F 5.9 °F 53% 29.90 in 10.0 mi WNW 3.5 mph - N/A   Overcast
7:55 PM 20.7 °F 11.9 °F 6.4 °F 54% 29.91 in 10.0 mi West 6.9 mph - N/A   Overcast
8:15 PM 20.7 °F 15.8 °F 7.2 °F 56% 29.91 in 10.0 mi West 3.5 mph - N/A   Overcast
8:35 PM 20.8 °F - 7.5 °F 56% 29.92 in 10.0 mi Calm Calm - N/A   Overcast
8:55 PM 20.8 °F 14.4 °F 7.9 °F 57% 29.93 in 7.0 mi NW 4.6 mph - N/A   Overcast
9:15 PM 19.8 °F 11.9 °F 8.4 °F 61% 29.93 in 10.0 mi West 5.8 mph - N/A   Overcast
9:35 PM 18.9 °F 10.8 °F 9.1 °F 66% 29.94 in 4.0 mi WNW 5.8 mph - N/A Snow Light Snow
9:55 PM 18.3 °F 11.5 °F 10.2 °F 71% 29.94 in 4.0 mi West 4.6 mph - N/A Snow Light Snow
10:15 PM 18.3 °F 9.1 °F 10.4 °F 71% 29.93 in 4.0 mi West 6.9 mph - N/A Snow Light Snow
10:35 PM 18.3 °F 10.2 °F 10.9 °F 73% 29.94 in 5.0 mi West 5.8 mph - N/A Snow Light Snow
10:55 PM 18.3 °F 10.2 °F 11.3 °F 74% 29.94 in 4.0 mi West 5.8 mph - N/A Snow Light Snow
11:15 PM 18.3 °F 10.2 °F 11.1 °F 73% 29.94 in 7.0 mi WNW 5.8 mph - N/A   Overcast
11:35 PM 18.3 °F 8.2 °F 9.5 °F 68% 29.95 in 7.0 mi WNW 8.1 mph - N/A   Overcast
11:55 PM 18.3 °F 10.2 °F 8.4 °F 65% 29.95 in 10.0 mi West 5.8 mph - N/A   Overcast